[[{"header":{"parameterUnit":"m.s-1","parameterCategory":2,"la1":30.2991,"la2":30.254,"lo1":-89.0895,"lo2":-89.0444,"dy":0.0017,"dx":0.0017,"nx":28,"ny":28,"refTime":"2024-06-11T21:00:00:Z","depth":"0","parameterNumber":2,"parameterNumberName":"U-component_of_CURRENTS"},"data":[0,0,0,0,0,0,0,0,0,0,0,0,0,0,0,0,0,0,0,0,0,0,0,0,0,0,0,0,0,0,0,0,0,0,0,0,0,0,0,0,0,0,0,0,0,0,0,0,0,0,0,0,0,0,0,0,0,0,0.1053,0.1054,0,0.1165,0.1167,0.1169,0.1089,0.1085,0.1081,0.1077,0.1256,0.1265,0.1273,0,0,0,0,0,0,0,0,0,0,0,0,0,0.0978,0.0979,0.1053,0.1054,0.1055,0.1165,0.1167,0.1169,0.109,0.1085,0.108,0.1076,0.1254,0.1264,0.1274,0,0,0,0,0,0,0,0,0,0,0,0,0,0.1046,0.0979,0.1053,0.1025,0.1024,0.1165,0.1167,0.117,0.1091,0.1085,0.1079,0.1073,0.125,0.1263,0.1275,0.1471,0,0,0.1314,0.1319,0,0,0,0,0,0,0,0,0.1042,0.1049,0.1028,0.1028,0.1026,0.1103,0.1206,0.1272,0.1092,0.107,0.1077,0.107,0.1213,0.1229,0.1268,0.148,0.1488,0.1315,0.1323,0.1328,0.1332,0,0,0,0,0,0,0,0.1037,0.1045,0.1102,0.103,0.1029,0.1079,0.1081,0.1219,0.1178,0.1071,0.1065,0.1073,0.1212,0.1256,0.1271,0.149,0.1314,0.1326,0.1334,0.1338,0.1886,0.1893,0,0,0,0,0,0,0.1011,0.104,0.1098,0.1105,0.1015,0.1084,0.1086,0.1088,0.1175,0.118,0.1077,0.1068,0.1237,0.1257,0.1278,0.1503,0.1328,0.134,0.1347,0.1879,0.1887,0.1895,0,0,0,0,0,0,0.1009,0.1015,0.1093,0.1072,0.1084,0.1089,0.1094,0.1093,0.1141,0.1178,0.1184,0.1124,0.1233,0.126,0.1442,0.1509,0.1345,0.1357,0.1871,0.1882,0.1891,0.1964,0,0,0,0,0,0,0.1006,0.1014,0.1043,0.107,0.1084,0.1237,0.1099,0.11,0.1152,0.1142,0.1223,0.1231,0.1231,0.1424,0.1455,0.1524,0.1367,0.1862,0.1876,0.1888,0.1952,0.1975,0.1995,0,0,0,0,0,0.1003,0.1072,0.1043,0.1052,0.1111,0.1244,0.1262,0.1245,0.1161,0.1252,0.1281,0.1229,0.1526,0.1442,0.1476,0.1549,0.1856,0.1872,0.1887,0.1943,0.1971,0.1994,0,0,0,0,0,0,0.1073,0.1071,0.1039,0.1106,0.119,0.1229,0.1305,0.1282,0.1377,0.1349,0.1348,0.1368,0.1546,0.158,0.1485,0.1754,0.1674,0.1698,0.1705,0.1732,0.1753,0.1653,0.1377,0,0,0,0,0,0.1098,0.1137,0.1169,0.1238,0.1275,0.1295,0.1347,0.1339,0.1403,0.1433,0.1479,0.1544,0.165,0.1708,0.182,0.1998,0.1985,0.2066,0.2087,0.2104,0.2056,0.2109,0.2126,0.1946,0.1946,0.1946,0,0,0.1135,0.1151,0.1167,0.1257,0.1302,0.1389,0.1316,0.1418,0.1473,0.1452,0.1575,0.1645,0.1724,0.1892,0.1973,0.1917,0.2176,0.2124,0.2136,0.2077,0.2127,0.2142,0.2156,0.1957,0.1955,0.1953,0,0,0.1248,0.1258,0.1324,0.1399,0.1481,0.1505,0.1539,0.1607,0.1626,0.1781,0.1751,0.185,0.2046,0.2071,0.2113,0.2341,0.2297,0.2405,0.2415,0.247,0.2481,0.2491,0.2572,0.2588,0.2398,0.2399,0.2399,0,0.1291,0.1356,0.1388,0.1482,0.1521,0.1552,0.1632,0.1706,0.1821,0.183,0.1836,0.2032,0.2106,0.2222,0.2286,0.2373,0.2409,0.2293,0.2485,0.2493,0.2502,0.2582,0.2598,0.2404,0.2403,0.2403,0.2402,0,0.1435,0.1497,0.1566,0.1647,0.1726,0.1825,0.1881,0.196,0.1968,0.1992,0.2127,0.2233,0.2304,0.2383,0.2401,0.2513,0.2527,0.2507,0.2384,0.2521,0.2602,0.2618,0.2412,0.241,0.2408,0.2407,0,0,0.1464,0.162,0.1635,0.1678,0.1796,0.187,0.197,0.2047,0.206,0.2192,0.2218,0.2401,0.2391,0.244,0.2489,0.2538,0.267,0.2546,0.2546,0.2562,0.2824,0.2859,0.2879,0.2678,0.268,0.2681,0.288,0,0.155,0.1719,0.1759,0.1898,0.1978,0.2002,0.2082,0.2147,0.2199,0.2267,0.2322,0.2417,0.2438,0.2476,0.2534,0.2637,0.2703,0.2619,0.2741,0.2744,0.2703,0.2894,0.2832,0.3004,0.2894,0.2896,0.2898,0,0.1639,0.1738,0.1873,0.1965,0.1992,0.2062,0.2108,0.2188,0.2262,0.2293,0.2348,0.2405,0.2513,0.2509,0.2692,0.2643,0.2729,0.2797,0.2806,0.2795,0.2805,0.2843,0.3035,0.2987,0.2921,0.2919,0.2917,0,0.1628,0.179,0.1881,0.1929,0.2059,0.207,0.2112,0.2175,0.2211,0.2295,0.2325,0.2444,0.2518,0.2629,0.2783,0.2748,0.2979,0.2946,0.3059,0.3064,0.3005,0.3001,0.3089,0.3053,0.3053,0.3052,0.3051,0,0.1686,0.1756,0.1877,0.1941,0.1995,0.2063,0.21,0.2144,0.2202,0.2245,0.2326,0.239,0.2548,0.2696,0.281,0.3008,0.301,0.3082,0.3119,0.3047,0.3044,0.2989,0.2908,0.3059,0.3058,0.3056,0.3055,0,0.1676,0.1769,0.187,0.1984,0.2004,0.2033,0.2082,0.2114,0.2164,0.2222,0.2249,0.2386,0.2584,0.2763,0.2979,0.3058,0.316,0.3286,0.321,0.3233,0.3261,0.3186,0.3127,0.3038,0.344,0.3442,0.3444,0,0.1699,0.1759,0.1876,0.1908,0.1954,0.2,0.2025,0.2083,0.211,0.2216,0.2244,0.2441,0.2565,0.2916,0.3125,0.3371,0.3244,0.343,0.3329,0.3277,0.3222,0.3043,0.2957,0.3325,0.3326,0.3326,0.3327,0,0.1718,0.1744,0.1821,0.1892,0.1927,0.1963,0.1999,0.2009,0.2076,0.2134,0.2226,0.2329,0.2669,0.2898,0.3228,0.3361,0.3263,0.3447,0.3403,0.3147,0.2943,0.2871,0.3198,0.3331,0.3331,0.333,0.333,0.333,0.1688,0.1727,0.1806,0.186,0.1898,0.1906,0.19,0.1945,0.1977,0.2042,0.2174,0.2326,0.2672,0.3123,0.3241,0.3442,0.3313,0.3411,0.3338,0.3175,0.3022,0.3378,0.3535,0.3536,0.3536,0.3537,0.3537,0,0.1651,0.1706,0.1767,0.1821,0.183,0.1862,0.1871,0.1851,0.1865,0.2001,0.2095,0.2436,0.2712,0.301,0.3355,0.3348,0.3185,0.3289,0.3009,0.2938,0.3303,0.3234,0.3319,0.3319,0.3319,0.3319,0.3319,0.3319,0.163,0.1678,0.1724,0.1737,0.1757,0.1727,0.1708,0.1703,0.1772,0.1909,0.2089,0.2265,0.2663,0.3054,0.3221,0.3197,0.2971,0.2876,0.2814,0.3079,0.3083,0.3086,0.3007,0.3043,0.3042,0.2369,0.2364,0.236]},{"header":{"parameterUnit":"m.s-1","parameterCategory":2,"la1":30.2991,"la2":30.254,"lo1":-89.0895,"lo2":-89.0444,"dy":0.0017,"dx":0.0017,"nx":28,"ny":28,"refTime":"2024-06-11T21:00:00:Z","depth":"0","parameterNumber":3,"parameterNumberName":"V-component_of_CURRENTS"},"data":[0,0,0,0,0,0,0,0,0,0,0,0,0,0,0,0,0,0,0,0,0,0,0,0,0,0,0,0,0,0,0,0,0,0,0,0,0,0,0,0,0,0,0,0,0,0,0,0,0,0,0,0,0,0,0,0,0,0,-0.0534,-0.0533,0,-0.0394,-0.0393,-0.0392,-0.0456,-0.0459,-0.0462,-0.0465,-0.0391,-0.0386,-0.0381,0,0,0,0,0,0,0,0,0,0,0,0,0,-0.0528,-0.053,-0.0534,-0.0532,-0.053,-0.0395,-0.0393,-0.0391,-0.0455,-0.0459,-0.0463,-0.0467,-0.0392,-0.0387,-0.038,0,0,0,0,0,0,0,0,0,0,0,0,0,-0.0477,-0.0531,-0.0535,-0.0544,-0.0543,-0.0395,-0.0393,-0.0391,-0.0454,-0.0459,-0.0464,-0.0469,-0.0394,-0.0387,-0.038,-0.0234,0,0,-0.0357,-0.0353,0,0,0,0,0,0,0,0,-0.048,-0.0478,-0.0545,-0.0543,-0.0542,-0.0445,-0.0363,-0.0341,-0.0453,-0.049,-0.0465,-0.0471,-0.041,-0.0401,-0.0367,-0.0231,-0.0228,-0.0356,-0.0351,-0.0348,-0.0346,0,0,0,0,0,0,0,-0.0484,-0.0482,-0.0481,-0.0542,-0.054,-0.0442,-0.0444,-0.0358,-0.0427,-0.0488,-0.0491,-0.047,-0.0411,-0.0374,-0.0365,-0.0227,-0.0356,-0.0349,-0.0345,-0.0342,-0.0073,-0.0071,0,0,0,0,0,0,-0.0509,-0.0487,-0.0486,-0.0477,-0.052,-0.044,-0.0441,-0.0473,-0.0427,-0.0423,-0.0466,-0.0474,-0.0384,-0.0374,-0.0363,-0.0249,-0.0348,-0.0341,-0.0337,-0.0076,-0.0073,-0.007,0,0,0,0,0,0,-0.051,-0.0512,-0.0491,-0.0473,-0.0464,-0.0437,-0.047,-0.0468,-0.0446,-0.0409,-0.0409,-0.045,-0.0388,-0.0374,-0.029,-0.0246,-0.0338,-0.0331,-0.0079,-0.0075,-0.0071,0.0017,0,0,0,0,0,0,-0.0511,-0.0515,-0.0519,-0.0477,-0.0466,-0.0385,-0.0465,-0.0462,-0.0424,-0.0433,-0.0393,-0.0391,-0.039,-0.0301,-0.0282,-0.0237,-0.0325,-0.0082,-0.0077,-0.0073,0.0011,0.0024,0.0035,0,0,0,0,0,-0.0512,-0.0489,-0.0522,-0.0519,-0.0486,-0.0381,-0.0363,-0.0361,-0.0418,-0.0369,-0.0367,-0.0394,-0.0259,-0.029,-0.027,-0.0222,-0.0085,-0.0079,-0.0073,0.0006,0.0021,0.0034,0,0,0,0,0,0,-0.0464,-0.0492,-0.0527,-0.0512,-0.0449,-0.0391,-0.0328,-0.0346,-0.03,-0.0322,-0.033,-0.0322,-0.0242,-0.0229,-0.0265,-0.0133,-0.0185,-0.0175,-0.0133,-0.0118,-0.0106,-0.0123,-0.0319,0,0,0,0,0,-0.0463,-0.047,-0.0452,-0.0424,-0.0398,-0.0367,-0.0322,-0.0325,-0.0285,-0.0273,-0.0249,-0.0228,-0.0188,-0.0157,-0.0109,-0.0002,-0.0036,0.0032,0.0043,0.0053,0.0053,0.0038,0.0047,-0.0051,-0.0051,-0.0051,0,0,-0.0429,-0.0441,-0.0443,-0.0413,-0.037,-0.0294,-0.0352,-0.0272,-0.0223,-0.0263,-0.0177,-0.0171,-0.0152,-0.0061,-0.0024,-0.005,0.0069,0.0061,0.0069,0.0063,0.0044,0.0053,0.0061,-0.0047,-0.0048,-0.0048,0,0,-0.0319,-0.038,-0.0331,-0.0288,-0.0226,-0.0212,-0.0195,-0.0138,-0.0131,-0.0034,-0.0082,-0.0051,0.005,0.0053,0.0066,0.0184,0.0129,0.0195,0.0253,0.0239,0.0245,0.0251,0.0234,0.0238,0.0204,0.0204,0.0204,0,-0.027,-0.0246,-0.0277,-0.0201,-0.0165,-0.0183,-0.0099,-0.0061,0.0014,0.0022,0.0002,0.0083,0.01,0.016,0.0185,0.021,0.0184,0.0196,0.0251,0.0256,0.026,0.0241,0.0243,0.0209,0.0208,0.0208,0.0207,0,-0.0121,-0.0098,-0.0045,-0.0008,0.004,0.0118,0.0134,0.0176,0.0162,0.0174,0.0231,0.0253,0.0279,0.0296,0.0282,0.0324,0.0291,0.0262,0.0207,0.0274,0.0251,0.0252,0.0216,0.0214,0.0213,0.0211,0,0,-0.0032,0.0034,0.0052,0.0074,0.0126,0.0175,0.0249,0.0297,0.0312,0.0367,0.0399,0.0454,0.0413,0.0425,0.0404,0.0398,0.0412,0.0347,0.0344,0.0316,0.0374,0.0377,0.0377,0.0382,0.0383,0.0383,0.0349,0,0.0095,0.0231,0.0226,0.0342,0.0398,0.037,0.0432,0.0458,0.0463,0.05,0.0482,0.0519,0.0478,0.0482,0.0472,0.043,0.0417,0.0424,0.0324,0.0321,0.0304,0.0379,0.0356,0.0326,0.035,0.035,0.035,0,0.0236,0.029,0.0417,0.0447,0.0468,0.0522,0.0538,0.0596,0.0615,0.0618,0.0625,0.0604,0.0617,0.0563,0.0518,0.052,0.0454,0.0411,0.0408,0.0377,0.0327,0.0262,0.0326,0.0129,0.035,0.035,0.035,0,0.0297,0.0408,0.0486,0.051,0.0566,0.0587,0.0604,0.0625,0.0653,0.0681,0.07,0.0693,0.0704,0.0629,0.0557,0.0528,0.0495,0.044,0.0379,0.0377,0.0321,0.0315,0.017,0.0391,0.0391,0.0392,0.0392,0,0.0407,0.0469,0.0511,0.0557,0.0612,0.0628,0.0676,0.0693,0.0725,0.0766,0.0752,0.0796,0.0717,0.0691,0.0592,0.0512,0.0521,0.0403,0.0377,0.0356,0.0353,0.0149,0.0057,0.039,0.0391,0.0391,0.0391,0,0.0476,0.0516,0.0591,0.064,0.0646,0.0681,0.0709,0.0742,0.0773,0.083,0.0846,0.0876,0.0863,0.0778,0.0681,0.0574,0.0385,0.044,0.0429,0.0402,0.0151,0.0067,-0.006,-0.0137,0.0359,0.0359,0.0359,0,0.0527,0.0581,0.0634,0.0652,0.0671,0.0708,0.0732,0.0763,0.0798,0.0886,0.0923,0.0951,0.0998,0.0884,0.0713,0.0561,0.0394,0.0402,0.0344,0.0151,0.0036,-0.0015,-0.0075,0.0302,0.0302,0.0302,0.0301,0,0.0595,0.0608,0.0647,0.0689,0.0711,0.0749,0.0786,0.0824,0.0877,0.095,0.1058,0.1117,0.1051,0.0943,0.0745,0.0603,0.0268,0.0389,0.0184,-0.0012,-0.0073,-0.0164,0.0305,0.0298,0.0298,0.0299,0.0299,0.0299,0.0607,0.0632,0.0663,0.0695,0.0731,0.0774,0.0807,0.0877,0.096,0.1096,0.1158,0.1306,0.1126,0.0887,0.0654,0.021,0.0241,0.005,-0.0033,-0.0064,-0.0147,0.0328,0.0297,0.0297,0.0298,0.0298,0.0298,0,0.0588,0.0613,0.0658,0.0691,0.073,0.0753,0.0826,0.0887,0.1002,0.1202,0.1335,0.14,0.1088,0.0764,0.0213,-0.0146,-0.0289,-0.0352,-0.0471,-0.051,-0.0106,-0.012,-0.0236,-0.0235,-0.0235,-0.0235,-0.0235,-0.0235,0.0571,0.0584,0.061,0.0657,0.0695,0.0745,0.0789,0.0933,0.1093,0.1379,0.1568,0.1713,0.149,0.0409,-0.0385,-0.0584,-0.0843,-0.0883,-0.0994,-0.0781,-0.0752,-0.0724,-0.0762,-0.1011,-0.1012,-0.1378,-0.1382,-0.1385]}],[{"header":{"parameterUnit":"m.s-1","parameterCategory":2,"la1":30.2991,"la2":30.254,"lo1":-89.0895,"lo2":-89.0444,"dy":0.0017,"dx":0.0017,"nx":28,"ny":28,"refTime":"2024-06-11T21:00:00:Z","depth":"2","parameterNumber":2,"parameterNumberName":"U-component_of_CURRENTS"},"data":[0,0,0,0,0,0,0,0,0,0,0,0,0,0,0,0,0,0,0,0,0,0,0,0,0,0,0,0,0,0,0,0,0,0,0,0,0,0,0,0,0,0,0,0,0,0,0,0,0,0,0,0,0,0,0,0,0,0,0.0865,0.0865,0,0.0847,0.0847,0.0847,0.0761,0.0759,0.0757,0.0755,0.0747,0.0749,0.075,0,0,0,0,0,0,0,0,0,0,0,0,0,0.0891,0.089,0.0865,0.0865,0.0865,0.0847,0.0847,0.0847,0.0761,0.0759,0.0756,0.0754,0.0746,0.0748,0.075,0,0,0,0,0,0,0,0,0,0,0,0,0,0.0877,0.089,0.0865,0.082,0.0815,0.0847,0.0847,0.0847,0.0762,0.0759,0.0756,0.0753,0.0746,0.0748,0.0751,0.0828,0,0,0.0759,0.076,0,0,0,0,0,0,0,0,0.0878,0.0876,0.0827,0.0823,0.0818,0.0803,0.0853,0.0841,0.0763,0.0783,0.0755,0.0751,0.0769,0.0769,0.0773,0.0828,0.0828,0.0759,0.076,0.0761,0.0762,0,0,0,0,0,0,0,0.0879,0.0877,0.0858,0.0827,0.0822,0.0823,0.0817,0.0851,0.0794,0.0781,0.0774,0.0773,0.0766,0.0771,0.0772,0.0827,0.0759,0.0761,0.0763,0.0764,0.0913,0.0915,0,0,0,0,0,0,0.0881,0.0878,0.0859,0.0858,0.0841,0.0824,0.0818,0.0811,0.0793,0.0787,0.0775,0.0769,0.0768,0.0769,0.0772,0.0838,0.0761,0.0764,0.0765,0.0911,0.0914,0.0916,0,0,0,0,0,0,0.0881,0.0879,0.086,0.0867,0.0865,0.0827,0.082,0.0812,0.0817,0.0789,0.0782,0.0787,0.0766,0.0768,0.0809,0.0837,0.0765,0.0767,0.0908,0.0912,0.0915,0.0986,0,0,0,0,0,0,0.0882,0.0879,0.0899,0.0867,0.0864,0.0896,0.0823,0.0814,0.0821,0.0812,0.0798,0.0793,0.0763,0.0806,0.0812,0.0839,0.0769,0.0905,0.0909,0.0914,0.0981,0.0992,0.1001,0,0,0,0,0,0.0883,0.0931,0.09,0.0899,0.0884,0.0898,0.0899,0.086,0.0825,0.0849,0.0831,0.0794,0.0838,0.0811,0.0817,0.0846,0.0902,0.0908,0.0913,0.0976,0.099,0.1001,0,0,0,0,0,0,0.0967,0.0925,0.0891,0.0926,0.0915,0.0883,0.0918,0.0881,0.0888,0.0884,0.0838,0.0835,0.0876,0.0869,0.0839,0.0904,0.0861,0.0868,0.0906,0.0919,0.0929,0.0931,0.0771,0,0,0,0,0,0.0991,0.1005,0.0965,0.0997,0.0998,0.096,0.0967,0.0937,0.0928,0.0926,0.0912,0.0906,0.091,0.0918,0.0928,0.0984,0.1015,0.1004,0.1014,0.1023,0.1031,0.1124,0.1144,0.0934,0.0934,0.0934,0,0,0.1033,0.1015,0.1023,0.1016,0.1007,0.1001,0.0958,0.0983,0.0971,0.0932,0.0948,0.0952,0.0934,0.0974,0.0992,0.0968,0.1104,0.103,0.1037,0.104,0.1132,0.1153,0.1171,0.0938,0.0937,0.0937,0,0,0.109,0.1109,0.111,0.1108,0.1096,0.1079,0.1087,0.1067,0.1059,0.1084,0.1039,0.1067,0.1083,0.1069,0.1061,0.1148,0.1156,0.1153,0.1206,0.1297,0.1315,0.1331,0.1414,0.1437,0.1156,0.1156,0.1156,0,0.113,0.1117,0.1125,0.1117,0.1119,0.1108,0.1103,0.1109,0.1102,0.1115,0.1099,0.1135,0.1121,0.1149,0.1164,0.1169,0.1228,0.1153,0.1311,0.1327,0.1342,0.1424,0.1448,0.116,0.116,0.116,0.1159,0,0.1146,0.115,0.1173,0.1137,0.116,0.1178,0.1166,0.1198,0.1196,0.1186,0.1241,0.1245,0.1264,0.1263,0.1233,0.1327,0.1337,0.1314,0.1276,0.1368,0.1448,0.1472,0.1166,0.1165,0.1164,0.1163,0,0,0.1167,0.117,0.117,0.116,0.117,0.1185,0.1216,0.123,0.1257,0.1284,0.1326,0.134,0.1367,0.1363,0.1354,0.1419,0.1571,0.1419,0.1422,0.1497,0.1794,0.1674,0.1688,0.1589,0.1593,0.1597,0.1812,0,0.1154,0.114,0.1152,0.1163,0.116,0.1193,0.1223,0.1254,0.1294,0.1352,0.1382,0.1428,0.1397,0.1431,0.1496,0.1548,0.1636,0.1515,0.1698,0.1703,0.1581,0.1712,0.1561,0.1729,0.1835,0.1839,0.1842,0,0.1121,0.1126,0.112,0.1162,0.1169,0.119,0.1265,0.1292,0.1378,0.1417,0.1491,0.1525,0.1616,0.1587,0.1756,0.1691,0.176,0.18,0.1809,0.1685,0.1627,0.1653,0.1769,0.1882,0.1879,0.1876,0.1874,0,0.1083,0.11,0.11,0.1109,0.1157,0.1192,0.1234,0.1316,0.1362,0.148,0.1547,0.1652,0.1729,0.1835,0.1905,0.1868,0.2095,0.2051,0.2014,0.2007,0.1904,0.1878,0.2204,0.2204,0.2203,0.2203,0.2202,0,0.1037,0.1041,0.1091,0.1091,0.1136,0.1188,0.1256,0.1316,0.1425,0.1497,0.1592,0.1675,0.1804,0.1925,0.1982,0.2073,0.2172,0.2057,0.2065,0.1923,0.1898,0.2033,0.201,0.2211,0.2209,0.2207,0.2206,0,0.0976,0.0994,0.1011,0.108,0.1108,0.1149,0.1255,0.131,0.1425,0.1535,0.1585,0.1744,0.1897,0.2003,0.218,0.2163,0.2255,0.2262,0.2073,0.2052,0.2097,0.2076,0.2273,0.2271,0.2269,0.2267,0.2266,0,0.0929,0.093,0.1,0.1024,0.1057,0.1127,0.1176,0.1291,0.1356,0.1558,0.1609,0.18,0.1888,0.2089,0.2115,0.2217,0.2266,0.2124,0.1995,0.2122,0.2111,0.2092,0.2074,0.1919,0.1915,0.1912,0.1909,0,0.0862,0.0896,0.0916,0.0969,0.102,0.1078,0.1164,0.1215,0.1363,0.1467,0.1621,0.1716,0.1884,0.1907,0.2004,0.2026,0.2083,0.2053,0.2307,0.1878,0.1792,0.1778,0.1773,0.188,0.1883,0.1885,0.1886,0.1888,0.0815,0.0827,0.0861,0.0915,0.0967,0.1026,0.1071,0.1166,0.126,0.1415,0.1526,0.1637,0.1707,0.1759,0.1765,0.179,0.1901,0.1859,0.1869,0.1883,0.1756,0.1667,0.1709,0.1711,0.1713,0.1714,0.1716,0,0.0752,0.0779,0.0811,0.0865,0.0906,0.0969,0.1058,0.1102,0.1197,0.1319,0.1427,0.1365,0.1409,0.1517,0.1497,0.15,0.1483,0.1472,0.1456,0.1486,0.1513,0.1366,0.1217,0.1216,0.1214,0.1213,0,0,0.0711,0.0718,0.0749,0.0793,0.0852,0.0915,0.0971,0.1033,0.1115,0.1144,0.1203,0.1327,0.1442,0.1289,0.1288,0.1264,0.1358,0.122,0.1621,0.1631,0.1655,0.1741,0.1548,0,0,0,0,0]},{"header":{"parameterUnit":"m.s-1","parameterCategory":2,"la1":30.2991,"la2":30.254,"lo1":-89.0895,"lo2":-89.0444,"dy":0.0017,"dx":0.0017,"nx":28,"ny":28,"refTime":"2024-06-11T21:00:00:Z","depth":"2","parameterNumber":3,"parameterNumberName":"V-component_of_CURRENTS"},"data":[0,0,0,0,0,0,0,0,0,0,0,0,0,0,0,0,0,0,0,0,0,0,0,0,0,0,0,0,0,0,0,0,0,0,0,0,0,0,0,0,0,0,0,0,0,0,0,0,0,0,0,0,0,0,0,0,0,0,-0.0516,-0.0517,0,-0.0518,-0.0518,-0.0518,-0.0514,-0.0514,-0.0514,-0.0514,-0.0514,-0.0514,-0.0514,0,0,0,0,0,0,0,0,0,0,0,0,0,-0.0478,-0.0479,-0.0516,-0.0517,-0.0517,-0.0518,-0.0518,-0.0518,-0.0514,-0.0514,-0.0514,-0.0514,-0.0514,-0.0514,-0.0514,0,0,0,0,0,0,0,0,0,0,0,0,0,-0.0487,-0.0479,-0.0516,-0.0517,-0.0517,-0.0518,-0.0518,-0.0518,-0.0514,-0.0514,-0.0514,-0.0514,-0.0514,-0.0514,-0.0514,-0.0512,0,0,-0.0514,-0.0514,0,0,0,0,0,0,0,0,-0.0486,-0.0488,-0.0516,-0.0517,-0.0517,-0.0518,-0.0505,-0.0517,-0.0514,-0.0513,-0.0514,-0.0514,-0.0517,-0.0516,-0.0514,-0.0512,-0.0512,-0.0514,-0.0514,-0.0514,-0.0514,0,0,0,0,0,0,0,-0.0486,-0.0488,-0.0515,-0.0517,-0.0517,-0.0506,-0.0507,-0.0507,-0.0513,-0.0513,-0.0513,-0.0517,-0.0516,-0.0514,-0.0514,-0.0512,-0.0514,-0.0514,-0.0514,-0.0514,-0.0549,-0.055,0,0,0,0,0,0,-0.0491,-0.0488,-0.0515,-0.0515,-0.0504,-0.0507,-0.0508,-0.0516,-0.0513,-0.0513,-0.0517,-0.0517,-0.0514,-0.0514,-0.0514,-0.0523,-0.0514,-0.0514,-0.0514,-0.0548,-0.0549,-0.055,0,0,0,0,0,0,-0.0491,-0.0494,-0.0515,-0.0503,-0.0505,-0.0508,-0.0516,-0.0516,-0.0519,-0.0516,-0.0516,-0.0521,-0.0514,-0.0514,-0.0523,-0.0523,-0.0514,-0.0514,-0.0547,-0.0548,-0.055,-0.0535,0,0,0,0,0,0,-0.049,-0.0494,-0.0504,-0.0503,-0.0506,-0.052,-0.0516,-0.0516,-0.0521,-0.0521,-0.0519,-0.0519,-0.0514,-0.0524,-0.0523,-0.0523,-0.0514,-0.0546,-0.0547,-0.0549,-0.0534,-0.0535,-0.0537,0,0,0,0,0,-0.0488,-0.0487,-0.0505,-0.0508,-0.0519,-0.0521,-0.0521,-0.0521,-0.0522,-0.0524,-0.0527,-0.0519,-0.0535,-0.0524,-0.0524,-0.0523,-0.0545,-0.0547,-0.0549,-0.0533,-0.0535,-0.0537,0,0,0,0,0,0,-0.0458,-0.0488,-0.0506,-0.0511,-0.0524,-0.0521,-0.0518,-0.0525,-0.0529,-0.0529,-0.0526,-0.0527,-0.0537,-0.0539,-0.0527,-0.0543,-0.0541,-0.0543,-0.0529,-0.0531,-0.0532,-0.0498,-0.0513,0,0,0,0,0,-0.0464,-0.0475,-0.0502,-0.0501,-0.0513,-0.0521,-0.0523,-0.0529,-0.0531,-0.0532,-0.0532,-0.0538,-0.0545,-0.0545,-0.0553,-0.0555,-0.0546,-0.0559,-0.056,-0.0561,-0.0536,-0.0531,-0.0528,-0.0557,-0.0557,-0.0557,0,0,-0.0443,-0.0465,-0.0467,-0.0497,-0.0504,-0.0518,-0.0521,-0.0524,-0.0527,-0.0532,-0.0531,-0.0543,-0.055,-0.0556,-0.0561,-0.0555,-0.0554,-0.0564,-0.0564,-0.0538,-0.0533,-0.0529,-0.0527,-0.0559,-0.0559,-0.0558,0,0,-0.042,-0.0439,-0.0456,-0.0473,-0.0502,-0.0507,-0.0513,-0.0526,-0.0526,-0.0538,-0.0542,-0.0551,-0.0564,-0.056,-0.0562,-0.0577,-0.0566,-0.0592,-0.056,-0.0556,-0.0552,-0.0549,-0.0549,-0.0546,-0.0586,-0.0586,-0.0586,0,-0.0397,-0.0427,-0.0455,-0.0481,-0.0484,-0.0505,-0.0515,-0.052,-0.0532,-0.0518,-0.0539,-0.0543,-0.056,-0.0544,-0.0557,-0.0575,-0.0573,-0.0548,-0.0554,-0.0551,-0.0547,-0.0548,-0.0545,-0.0586,-0.0586,-0.0586,-0.0586,0,-0.0401,-0.0425,-0.0426,-0.0472,-0.0481,-0.0482,-0.0505,-0.0505,-0.0512,-0.051,-0.0504,-0.0526,-0.0517,-0.054,-0.0553,-0.0539,-0.0545,-0.0559,-0.054,-0.0543,-0.0545,-0.0541,-0.0585,-0.0585,-0.0586,-0.0586,0,0,-0.0337,-0.0417,-0.0418,-0.0434,-0.0474,-0.0469,-0.0476,-0.047,-0.0439,-0.0471,-0.0428,-0.0468,-0.0465,-0.0468,-0.0487,-0.049,-0.0489,-0.0512,-0.0512,-0.0495,-0.0479,-0.0534,-0.0536,-0.0501,-0.05,-0.0499,-0.0494,0,-0.0328,-0.0375,-0.0412,-0.0419,-0.0435,-0.0449,-0.0434,-0.043,-0.0423,-0.0388,-0.0405,-0.0384,-0.0442,-0.043,-0.0445,-0.0465,-0.0476,-0.0488,-0.0493,-0.0493,-0.0527,-0.0533,-0.05,-0.0497,-0.0491,-0.049,-0.049,0,-0.0335,-0.0353,-0.038,-0.0385,-0.0387,-0.0384,-0.034,-0.0333,-0.0299,-0.029,-0.0278,-0.0284,-0.0285,-0.034,-0.0371,-0.0374,-0.0423,-0.0453,-0.0454,-0.0499,-0.0541,-0.0493,-0.0491,-0.0484,-0.0484,-0.0485,-0.0485,0,-0.0292,-0.0329,-0.0341,-0.0348,-0.0358,-0.0339,-0.0324,-0.0293,-0.0253,-0.0215,-0.0175,-0.0187,-0.017,-0.0233,-0.0314,-0.0335,-0.0349,-0.0386,-0.0482,-0.0486,-0.0453,-0.0457,-0.041,-0.041,-0.041,-0.041,-0.041,0,-0.0282,-0.0282,-0.0315,-0.0313,-0.0263,-0.0288,-0.0217,-0.0203,-0.0151,-0.008,-0.0112,-0.006,-0.0141,-0.0166,-0.0265,-0.0358,-0.0315,-0.0464,-0.0484,-0.0453,-0.0457,-0.0439,-0.0443,-0.041,-0.041,-0.041,-0.041,0,-0.0255,-0.0294,-0.028,-0.0269,-0.0255,-0.0214,-0.0154,-0.0092,-0.0063,0.0029,0.0047,0.0056,0.0012,-0.0088,-0.0173,-0.0282,-0.0376,-0.0426,-0.039,-0.0408,-0.0528,-0.0531,-0.0522,-0.0524,-0.0525,-0.0527,-0.0528,0,-0.0261,-0.0259,-0.0231,-0.0196,-0.0188,-0.013,-0.0076,-0.0047,0.0019,0.0101,0.0158,0.0147,0.0132,-0.0022,-0.0192,-0.0366,-0.039,-0.0458,-0.0507,-0.0516,-0.0537,-0.0537,-0.0538,-0.0457,-0.0458,-0.0458,-0.0458,0,-0.0221,-0.0211,-0.0185,-0.0122,-0.0068,-0.0002,0.007,0.0129,0.0183,0.025,0.033,0.0318,0.0171,0.0013,-0.0236,-0.0356,-0.0434,-0.0475,-0.0459,-0.0453,-0.046,-0.048,-0.0481,-0.0462,-0.0461,-0.0461,-0.0461,-0.0461,-0.0169,-0.0131,-0.0095,-0.0027,0.0034,0.0121,0.0192,0.0273,0.0368,0.0472,0.0439,0.0437,0.0228,-0.008,-0.0273,-0.0456,-0.0482,-0.0549,-0.0545,-0.0541,-0.0554,-0.0566,-0.0588,-0.0588,-0.0588,-0.0589,-0.0589,0,-0.0105,-0.0064,0.0003,0.0081,0.0163,0.0174,0.0291,0.0376,0.0497,0.056,0.0597,0.0416,0.0194,-0.0017,-0.03,-0.0515,-0.0503,-0.0559,-0.0492,-0.049,-0.0487,-0.0494,-0.0514,-0.0514,-0.0514,-0.0514,0,0,-0.0067,0.0007,0.0041,0.018,0.0238,0.035,0.0419,0.0544,0.0621,0.0694,0.0691,0.0578,0.0277,0.0088,-0.0186,-0.033,-0.0352,-0.0356,-0.0401,-0.0288,-0.0282,-0.0476,-0.0484,0,0,0,0,0]}],[{"header":{"parameterUnit":"m.s-1","parameterCategory":2,"la1":30.2991,"la2":30.254,"lo1":-89.0895,"lo2":-89.0444,"dy":0.0017,"dx":0.0017,"nx":28,"ny":28,"refTime":"2024-06-11T21:00:00:Z","depth":"4","parameterNumber":2,"parameterNumberName":"U-component_of_CURRENTS"},"data":[0,0,0,0,0,0,0,0,0,0,0,0,0,0,0,0,0,0,0,0,0,0,0,0,0,0,0,0,0,0,0,0,0,0,0,0,0,0,0,0,0,0,0,0,0,0,0,0,0,0,0,0,0,0,0,0,0,0,0.0367,0.0368,0,0.0404,0.0405,0.0405,0.0453,0.0454,0.0455,0.0456,0.0493,0.0493,0.0493,0,0,0,0,0,0,0,0,0,0,0,0,0,0.0329,0.033,0.0367,0.0368,0.0369,0.0404,0.0405,0.0405,0.0453,0.0454,0.0455,0.0456,0.0493,0.0493,0.0493,0,0,0,0,0,0,0,0,0,0,0,0,0,0.0352,0.033,0.0367,0.0398,0.0401,0.0404,0.0405,0.0405,0.0453,0.0454,0.0456,0.0457,0.0492,0.0493,0.0493,0.0466,0,0,0.0493,0.0493,0,0,0,0,0,0,0,0,0.0351,0.0353,0.0393,0.0396,0.04,0.0427,0.0405,0.0426,0.0452,0.0431,0.0456,0.0458,0.0471,0.0473,0.0474,0.0467,0.0469,0.0493,0.0493,0.0493,0.0493,0,0,0,0,0,0,0,0.0349,0.0352,0.038,0.0393,0.0397,0.0407,0.0412,0.0409,0.0441,0.0433,0.0437,0.0444,0.0472,0.0474,0.0475,0.047,0.0493,0.0493,0.0494,0.0494,0.0512,0.0512,0,0,0,0,0,0,0.0347,0.035,0.0379,0.0382,0.038,0.0407,0.0412,0.0415,0.0442,0.0447,0.0442,0.0446,0.0473,0.0475,0.0477,0.0519,0.0493,0.0494,0.0494,0.0512,0.0512,0.0513,0,0,0,0,0,0,0.0346,0.0349,0.0378,0.0368,0.0373,0.0406,0.0409,0.0415,0.0441,0.0449,0.0455,0.0465,0.0474,0.0477,0.0493,0.0518,0.0494,0.0494,0.0511,0.0512,0.0512,0.0557,0,0,0,0,0,0,0.0344,0.0348,0.0358,0.0368,0.0374,0.0395,0.0409,0.0415,0.0442,0.0448,0.0469,0.0473,0.0475,0.0493,0.0493,0.0518,0.0494,0.0511,0.0511,0.0512,0.0555,0.0559,0.0562,0,0,0,0,0,0.0343,0.0349,0.0358,0.0363,0.0384,0.0395,0.0399,0.0426,0.0442,0.0454,0.0469,0.0474,0.0498,0.0493,0.0494,0.0519,0.051,0.0511,0.0512,0.0553,0.0558,0.0562,0,0,0,0,0,0,0.0337,0.0355,0.0366,0.0378,0.0393,0.0405,0.0422,0.0434,0.0455,0.0467,0.0474,0.0478,0.05,0.0498,0.0492,0.0525,0.0507,0.0508,0.0538,0.0542,0.0546,0.0559,0.0494,0,0,0,0,0,0.0339,0.0352,0.0366,0.0378,0.0389,0.0407,0.042,0.0435,0.045,0.0462,0.0479,0.0492,0.0498,0.0513,0.0513,0.053,0.0526,0.0547,0.0551,0.0554,0.0564,0.0573,0.0578,0.0515,0.0515,0.0515,0,0,0.0337,0.0352,0.0358,0.0378,0.0395,0.0408,0.0419,0.0442,0.0459,0.046,0.0497,0.0502,0.0502,0.0523,0.0534,0.0531,0.0568,0.0555,0.0558,0.0566,0.0574,0.0581,0.0586,0.0516,0.0516,0.0516,0,0,0.0337,0.0357,0.0368,0.0382,0.041,0.0421,0.0432,0.0456,0.048,0.0503,0.0509,0.0529,0.0546,0.0554,0.0557,0.0578,0.058,0.0586,0.0627,0.0636,0.0641,0.0646,0.0644,0.0649,0.0597,0.0597,0.0597,0,0.0336,0.0351,0.0373,0.0387,0.0405,0.043,0.0445,0.0463,0.0492,0.0516,0.0524,0.0559,0.0558,0.0584,0.0599,0.0588,0.0594,0.0612,0.0642,0.0646,0.0651,0.0648,0.0652,0.0599,0.0599,0.0599,0.0599,0,0.0343,0.0358,0.0368,0.0396,0.0418,0.0434,0.0463,0.0495,0.0527,0.0549,0.0593,0.0596,0.0626,0.0626,0.0623,0.0658,0.0652,0.0638,0.0633,0.066,0.0655,0.0659,0.0603,0.0602,0.0601,0.0601,0,0,0.0321,0.0364,0.0366,0.0384,0.0426,0.044,0.0482,0.0524,0.0563,0.0597,0.0648,0.0661,0.0685,0.069,0.0692,0.0705,0.0733,0.0698,0.0698,0.0702,0.0757,0.075,0.0753,0.0735,0.0736,0.0737,0.074,0,0.0319,0.034,0.0371,0.0398,0.0413,0.0459,0.0498,0.0543,0.059,0.0645,0.0671,0.0713,0.0703,0.0733,0.0744,0.0742,0.0747,0.0734,0.0726,0.0725,0.0721,0.0758,0.074,0.0742,0.0743,0.0744,0.0744,0,0.0311,0.033,0.0352,0.0408,0.0423,0.0452,0.0531,0.057,0.0649,0.0692,0.0748,0.0775,0.0818,0.0796,0.0814,0.0814,0.0793,0.0778,0.0777,0.0761,0.0726,0.071,0.0751,0.075,0.075,0.0749,0.0749,0,0.0272,0.0317,0.0336,0.035,0.0415,0.0455,0.0507,0.0588,0.0637,0.0734,0.0782,0.0833,0.0871,0.0866,0.0852,0.0846,0.0853,0.0833,0.0797,0.0796,0.078,0.0774,0.0827,0.0827,0.0827,0.0827,0.0827,0,0.0251,0.0262,0.0324,0.0328,0.0377,0.0444,0.0512,0.0575,0.0674,0.0726,0.081,0.0848,0.0894,0.0906,0.0877,0.086,0.0873,0.0817,0.0805,0.0796,0.0793,0.0782,0.0777,0.0827,0.0827,0.0827,0.0827,0,0.0196,0.023,0.0249,0.0321,0.0352,0.0391,0.0508,0.0555,0.0665,0.0739,0.0777,0.0876,0.0913,0.0929,0.0921,0.0894,0.0868,0.0842,0.0838,0.0822,0.0798,0.0794,0.0828,0.0828,0.0828,0.0828,0.0828,0,0.0176,0.0173,0.0225,0.0245,0.0281,0.0356,0.0406,0.0532,0.0585,0.0729,0.075,0.0844,0.0891,0.0892,0.0903,0.0884,0.0857,0.0847,0.0827,0.0818,0.0802,0.0799,0.0796,0.0828,0.0828,0.0828,0.0828,0,0.0128,0.0134,0.0147,0.0187,0.0234,0.0289,0.0377,0.0415,0.0553,0.0645,0.0736,0.0796,0.0843,0.0874,0.0881,0.0844,0.087,0.0846,0.0846,0.0827,0.0818,0.0801,0.0798,0.0828,0.0828,0.0828,0.0828,0,0.009,0.0077,0.0094,0.0136,0.0183,0.0231,0.0281,0.0372,0.0454,0.0626,0.0632,0.0737,0.0817,0.0848,0.0829,0.0842,0.083,0.0801,0.0803,0.0803,0.0798,0.0783,0.0785,0,0,0,0,0,0.006,0.0041,0.0056,0.0097,0.0142,0.0187,0.0267,0.0324,0.0443,0.0497,0.0585,0.0631,0.0708,0.075,0.0757,0.0794,0.0804,0.0799,0.0764,0.0827,0.0828,0.0826,0,0,0,0,0,0,0.0037,0.0027,0.0033,0.0071,0.01,0.0158,0.021,0.0284,0.0335,0.0454,0.0494,0.0601,0.0664,0.0697,0.0746,0.0759,0.0728,0.0863,0.0862,0.0827,0.0827,0.0828,0.0826,0,0,0,0,0]},{"header":{"parameterUnit":"m.s-1","parameterCategory":2,"la1":30.2991,"la2":30.254,"lo1":-89.0895,"lo2":-89.0444,"dy":0.0017,"dx":0.0017,"nx":28,"ny":28,"refTime":"2024-06-11T21:00:00:Z","depth":"4","parameterNumber":3,"parameterNumberName":"V-component_of_CURRENTS"},"data":[0,0,0,0,0,0,0,0,0,0,0,0,0,0,0,0,0,0,0,0,0,0,0,0,0,0,0,0,0,0,0,0,0,0,0,0,0,0,0,0,0,0,0,0,0,0,0,0,0,0,0,0,0,0,0,0,0,0,0.0002,0.0001,0,-0.0078,-0.0078,-0.0079,-0.011,-0.011,-0.011,-0.011,-0.0174,-0.0176,-0.0178,0,0,0,0,0,0,0,0,0,0,0,0,0,0.01,0.0098,0.0002,0.0001,-0.0,-0.0078,-0.0078,-0.0079,-0.011,-0.011,-0.011,-0.011,-0.0174,-0.0176,-0.0178,0,0,0,0,0,0,0,0,0,0,0,0,0,0.0044,0.0098,0.0002,-0.0027,-0.003,-0.0077,-0.0079,-0.008,-0.011,-0.011,-0.011,-0.011,-0.0173,-0.0176,-0.0178,-0.0195,0,0,-0.0186,-0.0187,0,0,0,0,0,0,0,0,0.0048,0.0041,-0.0021,-0.0025,-0.0029,-0.0086,-0.0068,-0.0118,-0.0111,-0.0078,-0.011,-0.011,-0.0145,-0.015,-0.0162,-0.0198,-0.0201,-0.0186,-0.0188,-0.0189,-0.019,0,0,0,0,0,0,0,0.0052,0.0044,-0.0027,-0.0023,-0.0027,-0.0045,-0.0053,-0.0077,-0.0109,-0.0081,-0.0084,-0.0096,-0.0146,-0.0159,-0.0164,-0.0202,-0.0186,-0.0189,-0.019,-0.0191,-0.027,-0.0271,0,0,0,0,0,0,0.0058,0.0048,-0.0025,-0.003,0.0008,-0.0047,-0.0055,-0.0066,-0.0109,-0.0116,-0.0096,-0.0097,-0.0155,-0.0161,-0.0166,-0.0213,-0.0189,-0.0191,-0.0193,-0.027,-0.027,-0.0271,0,0,0,0,0,0,0.0061,0.0053,-0.0022,0.0006,-0.0006,-0.0049,-0.0061,-0.0068,-0.0098,-0.0121,-0.0127,-0.0121,-0.0155,-0.0162,-0.0194,-0.0215,-0.0193,-0.0195,-0.0269,-0.027,-0.0271,-0.0292,0,0,0,0,0,0,0.0064,0.0054,0.0041,0.0006,-0.0007,-0.0057,-0.0061,-0.0069,-0.0105,-0.0108,-0.0144,-0.0149,-0.0156,-0.019,-0.0197,-0.0218,-0.0197,-0.0268,-0.027,-0.0271,-0.029,-0.0293,-0.0296,0,0,0,0,0,0.0068,0.0039,0.0041,0.0032,-0.0021,-0.0058,-0.0066,-0.0095,-0.0107,-0.0122,-0.0142,-0.0149,-0.0201,-0.0193,-0.02,-0.0223,-0.0268,-0.0269,-0.027,-0.0289,-0.0293,-0.0296,0,0,0,0,0,0,0.0056,0.0033,0.0034,-0.0005,-0.0027,-0.0064,-0.0094,-0.0106,-0.0136,-0.0143,-0.0159,-0.0166,-0.0201,-0.0208,-0.0198,-0.0247,-0.0235,-0.0238,-0.0247,-0.025,-0.0253,-0.0262,-0.0199,0,0,0,0,0,0.0054,0.0035,0.0013,-0.002,-0.0033,-0.0063,-0.0086,-0.0099,-0.0128,-0.0143,-0.0165,-0.0188,-0.021,-0.0227,-0.0245,-0.0276,-0.029,-0.0294,-0.0297,-0.0299,-0.0311,-0.0361,-0.037,-0.0275,-0.0275,-0.0275,0,0,0.0038,0.0022,0.0009,-0.0022,-0.0047,-0.0056,-0.0077,-0.0116,-0.0126,-0.0145,-0.0176,-0.0201,-0.022,-0.025,-0.0267,-0.0261,-0.0326,-0.03,-0.0302,-0.0313,-0.0363,-0.0373,-0.0381,-0.0276,-0.0276,-0.0276,0,0,0.0005,-0.0016,-0.0032,-0.0039,-0.0068,-0.0079,-0.0091,-0.0126,-0.0147,-0.0174,-0.019,-0.023,-0.026,-0.0282,-0.0295,-0.0326,-0.0339,-0.033,-0.0356,-0.0404,-0.0413,-0.0421,-0.0422,-0.043,-0.0332,-0.0332,-0.0332,0,-0.0012,-0.0023,-0.0046,-0.0051,-0.0058,-0.0086,-0.0091,-0.0116,-0.0154,-0.0181,-0.0184,-0.0256,-0.0275,-0.0321,-0.0332,-0.0335,-0.035,-0.0342,-0.0409,-0.0417,-0.0425,-0.0425,-0.0433,-0.0333,-0.0333,-0.0333,-0.0333,0,-0.0038,-0.0039,-0.0056,-0.0054,-0.0069,-0.0085,-0.0103,-0.0131,-0.0158,-0.0184,-0.0247,-0.028,-0.0326,-0.0338,-0.0347,-0.0412,-0.0399,-0.0407,-0.0403,-0.0436,-0.0433,-0.0441,-0.0335,-0.0335,-0.0334,-0.0334,0,0,-0.0089,-0.0072,-0.0074,-0.0056,-0.0065,-0.008,-0.0104,-0.0138,-0.0168,-0.0215,-0.0263,-0.0319,-0.036,-0.0378,-0.0404,-0.045,-0.0509,-0.0457,-0.0459,-0.0461,-0.0591,-0.0535,-0.0539,-0.0537,-0.0539,-0.0541,-0.0556,0,-0.0095,-0.0081,-0.008,-0.0068,-0.0058,-0.0076,-0.0093,-0.0131,-0.0174,-0.0227,-0.0292,-0.0342,-0.0367,-0.0398,-0.0454,-0.05,-0.0537,-0.0502,-0.0557,-0.0557,-0.0508,-0.055,-0.0548,-0.0563,-0.0565,-0.0566,-0.0567,0,-0.0111,-0.0091,-0.0074,-0.0052,-0.0056,-0.0061,-0.01,-0.0119,-0.0196,-0.0233,-0.031,-0.0359,-0.0442,-0.0453,-0.0559,-0.0539,-0.0572,-0.06,-0.0602,-0.0554,-0.052,-0.053,-0.0582,-0.0581,-0.058,-0.0579,-0.0578,0,-0.0114,-0.0089,-0.007,-0.006,-0.0047,-0.0065,-0.0078,-0.0137,-0.0157,-0.0249,-0.0273,-0.0385,-0.0427,-0.0514,-0.0575,-0.0581,-0.0671,-0.068,-0.0653,-0.0647,-0.0682,-0.0674,-0.0756,-0.0756,-0.0756,-0.0756,-0.0756,0,-0.0109,-0.0095,-0.0071,-0.0055,-0.0054,-0.006,-0.0086,-0.012,-0.0168,-0.0188,-0.0283,-0.0314,-0.0452,-0.0515,-0.0581,-0.0634,-0.0676,-0.0668,-0.0663,-0.0684,-0.0676,-0.0686,-0.0677,-0.0756,-0.0756,-0.0756,-0.0756,0,-0.0115,-0.0092,-0.0067,-0.0051,-0.0049,-0.0058,-0.0064,-0.0081,-0.0126,-0.0154,-0.0178,-0.0274,-0.0361,-0.046,-0.0581,-0.0615,-0.0683,-0.0684,-0.0666,-0.0658,-0.0622,-0.0615,-0.0675,-0.0674,-0.0673,-0.0672,-0.0671,0,-0.0115,-0.01,-0.0067,-0.0048,-0.0043,-0.0046,-0.0043,-0.0069,-0.0075,-0.0116,-0.0124,-0.0212,-0.028,-0.039,-0.0514,-0.0626,-0.0636,-0.0655,-0.0684,-0.0633,-0.0622,-0.0616,-0.0611,-0.0669,-0.0668,-0.0668,-0.0668,0,-0.0116,-0.011,-0.0085,-0.0038,-0.0024,0.0,0.0003,0.0008,-0.0013,-0.0045,-0.0066,-0.0144,-0.0228,-0.0359,-0.0437,-0.0522,-0.0648,-0.0643,-0.0647,-0.0674,-0.0625,-0.0615,-0.0611,-0.0663,-0.0664,-0.0664,-0.0665,0,-0.0126,-0.0108,-0.0065,-0.0024,0.001,0.005,0.004,0.0052,0.0049,0.0011,0.0004,-0.01,-0.0179,-0.0303,-0.0381,-0.0459,-0.0489,-0.0507,-0.0518,-0.0525,-0.0484,-0.04,-0.0376,0,0,0,0,0,-0.0125,-0.0084,-0.0045,0.0017,0.0055,0.0083,0.0088,0.0075,0.0059,0.0063,0.004,-0.0033,-0.0158,-0.0234,-0.0302,-0.0377,-0.0514,-0.0457,-0.0543,-0.0639,-0.0644,-0.0619,0,0,0,0,0,0,-0.0115,-0.0078,-0.0036,0.0056,0.0107,0.0152,0.0161,0.0141,0.0136,0.0103,0.0029,-0.0016,-0.0155,-0.0102,-0.0286,-0.0317,-0.0373,-0.053,-0.0531,-0.0636,-0.0641,-0.0645,-0.0621,0,0,0,0,0]}]]